Regional Weather Roundup
Issued by NWS

Home | Current Version | Previous Version | Graphics & Text | Print | Product List | Glossary On
Versions: 1 2 3 4 5 6 7 8 9 10 11 12 13 14 15 16 17 18 19 20 21 22 23 24 25 26 27 28 29 30 31 32 33 34 35 36 37 38 39 40 41 42 43 44 45 46 47 48 49 50
880
ASUS43 KOAX 161710
RWRNE

WEATHER ROUNDUP FOR NEBRASKA
NATIONAL WEATHER SERVICE OMAHA NE
1100 AM CST MON JAN 16 2017

NOTES: SATELLITE DATA IS BEING USED TO AUGMENT CLOUD COVER ABOVE
       12000 FEET.
       "FAIR" INDICATES FEW OR NO CLOUDS BELOW 12,000 FEET WITH NO
       SIGNIFICANT WEATHER AND/OR OBSTRUCTIONS TO VISIBILITY.

  * THESE STATIONS DO NOT REPORT WEATHER SUCH AS RAIN...SNOW OR FOG.

NEZ001>004-019>022-054>056-161800-
NEBRASKA PANHANDLE

CITY           SKY/WX    TMP DP  RH WIND       PRES   REMARKS
SCOTTSBLUFF    CLOUDY    37  18  46 NW12      30.10R WCI  29
ALLIANCE       CLOUDY    33  16  49 N20       30.06R WCI  21
CHADRON        CLOUDY    26  16  65 VRB5      30.14R WCI  20
KIMBALL        CLOUDY    33  26  73 N15       30.06R WCI  23
SIDNEY         CLOUDY    33  24  69 N15       30.04R WCI  23
$$

NEZ057>060-069>072-079>082-161800-
SOUTHWEST NEBRASKA

CITY           SKY/WX    TMP DP  RH WIND       PRES   REMARKS
NORTH PLATTE   LGT RAIN  34  32  92 N9        29.98R FOG     WCI  27
IMPERIAL       LGT RAIN  33  31  92 N17       29.97R FOG     WCI  22
LEXINGTON      LGT RAIN  33  32  96 N8        29.97R WCI  26
MCCOOK         LGT RAIN  33  33 100 N8        29.96R FOG     WCI  26
OGALLALA       LGT SNOW  35  32  90 N10G18    30.00R WCI  27
$$

NEZ005>010-023>029-035>040-094-161800-
NORTH CENTRAL NEBRASKA

CITY           SKY/WX    TMP DP  RH WIND       PRES   REMARKS
VALENTINE      CLOUDY    31  19  61 N10       30.06R WCI  22
AINSWORTH      CLOUDY    29  26  87 N9        30.03S WCI  21
BROKEN BOW     LGT RAIN  34  32  92 N15       29.96S FOG     WCI  24
O`NEILL        CLOUDY    30  29  96 N13       30.03R WCI  20
ORD            LGT RAIN  33  30  88 N12       29.98R FOG     WCI  24
THEDFORD       CLOUDY    32  30  92 N8        30.03R WCI  25
$$

NEZ041-046>049-061>064-073>077-083>087-161800-
SOUTH CENTRAL NEBRASKA

CITY           SKY/WX    TMP DP  RH WIND       PRES   REMARKS
GRAND ISLAND     N/A    N/A N/A N/A MISG      29.97R
AURORA         MIX PCPN  32  31  98 N5        29.95S WCI  27
HASTINGS       FRZ RAIN  32  30  92 N15       29.94S FOG     WCI  22
HEBRON         CLOUDY    32  32  99 NE3       29.91S FOG
HOLDREGE       MIX PCPN  32  31  96 N6        29.93R WCI  27
KEARNEY *      CLOUDY    32  28  86 N9        29.96R WCI  24
YORK           RAIN      32  32 100 CALM      29.94F
$$

NEZ011>018-030>034-042>045-161800-
NORTHEAST NEBRASKA

CITY           SKY/WX    TMP DP  RH WIND       PRES   REMARKS
NORFOLK        MIX PCPN  31  29  92 N9        30.00R FOG     WCI  23
ALBION         MIX PCPN  32  30  93 N8        30.00R WCI  25
BLAIR          MIX PCPN  33  32  98 NE8       29.95S WCI  25
FREMONT        LGT SNOW  32  32 100 N3        29.97F
TEKAMAH        LGT RAIN  33  31  92 N10       29.99F FOG     WCI  25
WAYNE          MIX PCPN  32  32  99 N10       30.01R WCI  24
$$

NEZ050>053-065>068-078-088>093-161800-
SOUTHEAST NEBRASKA

CITY           SKY/WX    TMP DP  RH WIND       PRES   REMARKS
LINCOLN        RAIN      33  32  96 NE9       29.96S FOG     WCI  25
OMAHA EPPLEY   LGT RAIN  33  29  85 N6        29.97F FOG     WCI  28
BEATRICE       CLOUDY    33  33  98 NE7       29.91S FOG     WCI  27
FALLS CITY     CLOUDY    34  33  96 E8        29.91S FOG     WCI  27
NEBRASKA CITY  MIX PCPN  32  32 100 NE6       29.93S WCI  27
PLATTSMOUTH    CLOUDY    33  31  93 NE6       29.94S WCI  27
$$

NEZ044-045-051>053-067-161800-
OMAHA AREA

CITY           SKY/WX    TMP DP  RH WIND       PRES   REMARKS
OMAHA EPPLEY   LGT RAIN  33  29  85 N6        29.97F FOG     WCI  28
BLAIR          MIX PCPN  33  32  98 NE8       29.95S WCI  25
FREMONT        LGT SNOW  32  32 100 N3        29.97F
MILLARD        MIX PCPN  35  33  93 CALM      29.96S
OFFUTT AFB     LGT RAIN  33  33 100 NE6       29.95F WCI  27
PLATTSMOUTH    CLOUDY    33  31  93 NE6       29.94S WCI  27
WAHOO          LGT SNOW  32  32  98 N10       29.96S WCI  24
$$




USA.gov is the U.S. government's official web portal to all federal, state and local government web resources and services.